Regional Weather Roundup
Issued by NWS

Home | Current Version | Previous Version | Text Only | Print | Product List | Glossary On
Versions: 1 2 3 4 5 6 7 8 9 10 11 12 13 14 15 16 17 18 19 20 21 22 23 24 25 26 27 28 29 30 31 32 33 34 35 36 37 38 39 40 41 42 43 44 45 46 47 48 49 50
000
ASUS44 KBMX 130210
RWRAL

ALABAMA REGIONAL WEATHER ROUNDUP
NATIONAL WEATHER SERVICE BIRMINGHAM AL
800 PM CST FRI FEB 12 2016

NOTE: "FAIR" INDICATES FEW OR NO CLOUDS BELOW 12,000 FEET
WITH NO SIGNIFICANT WEATHER AND/OR OBSTRUCTIONS TO VISIBILITY.

THE REMARK "TC" DENOTES TEMPERATURE IN DEGREES CELSIUS.

ALZ001>011-014-016>018-020-130300-
NORTH ALABAMA

CITY           SKY/WX    TMP DP  RH WIND       PRES   REMARKS
MUSCLE SHOALS  CLEAR     42  25  50 N8        30.33R
HUNTSVILLE     CLEAR     43  25  49 N15G28    30.28R
DECATUR        CLEAR     41  26  55 NW18G26   30.30R
HALEYVILLE     FAIR      42  27  55 N15G22    30.31R
GADSDEN        CLEAR     49  29  46 NW8       30.23R
$$

ALZ012-013-022-023-030>036-040>044-130300-
WEST CENTRAL ALABAMA

CITY           SKY/WX    TMP DP  RH WIND       PRES   REMARKS
TUSCALOOSA     CLEAR     53  30  41 NW12G18   30.26R
$$

ALZ015-024>027-033>036-040>044-130300-
CENTRAL ALABAMA

CITY           SKY/WX    TMP DP  RH WIND       PRES   REMARKS
BIRMINGHAM     CLEAR     51  29  42 NW13      30.25R
MONTGOMERY     CLEAR     56  35  45 NW9       30.20R
SHELBY CO ARPT CLEAR     53  31  42 NW8       30.22R
MAXWELL AFB    CLEAR     56  35  44 NW7       30.19R
GREENVILLE     FAIR      59  33  37 NW7       30.18R
$$

ALZ019-021-028-029-037-038-045>048-130300-
EAST CENTRAL ALABAMA

CITY           SKY/WX    TMP DP  RH WIND       PRES   REMARKS
ANNISTON       CLEAR     52  26  36 NW13G21   30.20R
ALEXANDER CITY CLEAR     53  35  50 NW8       30.19R
AUBURN         CLEAR     56  33  42 NW12      30.17R
$$

ALZ051>064-130300-
SOUTHWEST ALABAMA

CITY           SKY/WX    TMP DP  RH WIND       PRES   REMARKS
MOBILE         PTCLDY    62  50  64 NW5       30.22R
BROOKLEY FIELD CLEAR     57  50  77 NW6       30.22R
EVERGREEN      CLEAR     52  45  77 CALM      30.20R
$$

ALZ049-050-065>069-130300-
SOUTHEAST ALABAMA

CITY           SKY/WX    TMP DP  RH WIND       PRES   REMARKS
DOTHAN         CLEAR     57  38  48 NW7       30.19R
OZARK          CLEAR     60  41  49 NW8       30.16R
TROY           CLEAR     60  35  39 NW8       30.18R
EUFAULA        FAIR      60  36  40 W7        30.14R
$$



USA.gov is the U.S. government's official web portal to all federal, state and local government web resources and services.